Showing default

DSN-3, 61733

Orbit data source: Space-Track

DSN-3, 61733 is a payload satellite owned by DSN Corp. (JP) in GEO that was launched on Mon, 04 Nov 2024 UTC via a H3-22S launch vehicle from the Tanegashima Space Center (TNSTA). Payloads include a variety of satellites, spacecraft, and rockets equipped with specific instruments for various scientific and technological missions. These include communications satellites like Starlink; space stations such as the ISS; scientific satellites like the Hubble; Earth observation satellites from companies like Planet Labs, Umbra, and HawkEye 360; GPS; miniature CubeSats for education and research; and military/defense satellites.

Not visible in the next 10 days
DSN-3 details
Identifier
61733, 2024-198A
Orbit
GEO
Last TLE update23 hours ago
Origin
Flag of JPDSN Corp. (JP / JPN)
ManufacturerMELCO/NECST
MissionOperational spacecraft
Bus & MotorDS-2000, R-4D
Mass5,000 kg wet, 2,500 kg dry
Launch date (UTC)
2024-11-04 (1 month ago)
Launch vehicle
H3-22S
Launch site
Tanegashima Space Center (TNSTA)
Object type
Payload
Rocket body
Debris
Shape & HBRUnknown
Radar Cross SectionLarge (>1 m²)

Expand to show TLE details & history

TLE from 23 hours ago
0 DSN-3
1 61733U 24198A   24347.98014348 -.00000236  00000-0  00000+0 0  9992
2 61733   0.0239  43.5328 0000659 237.8494 297.6753  1.00270044   421
Epoch: 2024-12-12T23:31Z
Definitive object data (Epoch: 2024-12-12T23:31:24.396Z)
Latitude-0.01421°
Longitude144.03409°
Altitude35,785.272 km
Speed3.075 km/s
True Right ascension14h 36m 09s
True Declination0° 00' 51"
Sunlit
Object was in daylight at TLE epoch
Visualization TLE readout
Latitude-0.00904°
Longitude135.61345°
Altitude35,785.734 km
Speed3.075 km/s
Apparent Right ascension13h 38m 39s
Apparent Declination-5° 16' 38"
Sunlit
Object is in daylight
Visualization observer readout
Local Sidereal Time21:25:52
Azimuth283.756° WNW
Elevation-23.791°
Doppler factor1
Orbital elements
Apogee altitude35,790.932 km
Perigee altitude35,785.375 km
Semi-major axis42,166.29 km
Eccentricity0.0000659
Inclination0.0239°
RAAN43.5328°
Arg. of periapsis237.8494°
True anomaly297.66861°
Mean anomaly297.6753°
Eccentric anomaly297.67196°
Mean motion0.25067 °/min
BSTARUnknown
Orbital period1436.18 mins
Loading historical data...
61733 neighbors
Authenticating...
Loading maneuver chart data...
Loading historical data...
Loading historical data...
Loading historical data...
Loading historical data...
Loading historical data...
Loading historical data...
Loading historical data...
Other satellites on launch #198 in the year 2024 (2024-11-04 UTC)

DSN-3 Visibility forecast

Observer location: undefined°, undefined

DSN-3 is not visible in the next 10 days
Span
Click to sort rows by Start time (UTC) header in descending order
Start Az.
Max El. time (UTC)
Max El. Az.
Max El.
End time (UTC)
End Az.
|